Weather History for KMGW - January, 2012

Change the Weather History Date:

Wednesday, January 18, 2012

  Actual Average Record
Temperature  
Mean Temperature 30 °F 31 °F  
Max Temperature 39 °F 39 °F 68 °F (1996)
Min Temperature 21 °F 24 °F -13 °F (1994)
Degree Days  
Heating Degree Days 35 34  
Month to date heating degree days 553 609  
Since 1 July heating degree days 2185 2593  
Cooling Degree Days 0 0  
Month to date cooling degree days 0 0  
Year to date cooling degree days 0 0  
Moisture  
Dew Point 22 °F    
Average Humidity 66    
Maximum Humidity 84    
Minimum Humidity 47    
Precipitation  
Precipitation 0.02 in 0.09 in 0.50 in (2004)
Month to date precipitation 1.44 1.62  
Year to date precipitation 1.44 1.62  
Sea Level Pressure  
Sea Level Pressure 30.06 in    
Wind  
Wind Speed 4 mph (WNW)    
Max Wind Speed 15 mph    
Max Gust Speed 24 mph    
Visibility 8 miles    
Events Snow    
T = Trace of Precipitation, MM = Missing Value Source: NWS Daily Summary

Daily Weather History Graph

Daily Weather History Graph

Search for Another Location

Airport or City:

Trip Planner

Search our weather history database for the weather conditions in past years. The results will help you decide how hot, cold, wet, or windy it might be!

Date:

Astronomy

Jan. 18, 2012 Rise Set
Actual Time 7:37 AM EST 5:22 PM EST
Civil Twilight 7:08 AM EST 5:52 PM EST
Nautical Twilight 6:35 AM EST 6:25 PM EST
Astronomical Twilight 6:02 AM EST 6:57 PM EST
Moon 3:05 AM EST (1/18) 1:00 PM EST (1/18)
Length of Visible Light 10h 43m
Length of Day
9h 45m
Waning Crescent, 25% of the Moon is Illuminated
Jan 18
Waning Crescent
Jan 23
New
Jan 30
First Quarter
Feb 7
Full
Feb 14
Last Quarter

Hourly Weather History & Observations

Time (EST) Temp. Windchill Dew Point Humidity Pressure Visibility Wind Dir Wind Speed Gust Speed Precip Events Conditions
12:53 AM 37.9 °F 32.1 °F 26.1 °F 62% 29.95 in 10.0 mi West 8.1 mph 18.4 mph N/A   Overcast
1:32 AM 35.6 °F 26.2 °F 28.4 °F 75% 29.94 in 2.5 mi West 15.0 mph 23.0 mph 0.00 in Snow Light Snow
1:34 AM 35.6 °F 26.2 °F 28.4 °F 75% 29.95 in 1.8 mi WNW 15.0 mph 23.0 mph 0.00 in Snow Light Snow
1:45 AM 33.8 °F 25.3 °F 28.4 °F 81% 29.95 in 3.0 mi West 11.5 mph 21.9 mph 0.00 in Snow Light Snow
1:53 AM 34.0 °F 26.6 °F 28.9 °F 82% 29.97 in 9.0 mi West 9.2 mph 17.3 mph 0.00 in   Overcast
2:08 AM 33.8 °F 27.7 °F 28.4 °F 81% 29.96 in 8.0 mi West 6.9 mph 17.3 mph N/A   Overcast
2:14 AM 33.8 °F 25.3 °F 28.4 °F 81% 29.97 in 2.0 mi West 11.5 mph 18.4 mph 0.01 in Snow Light Snow
2:18 AM 33.8 °F 25.3 °F 30.2 °F 87% 29.97 in 0.8 mi West 11.5 mph 20.7 mph 0.01 in Snow Light Snow
2:26 AM 33.8 °F 25.3 °F 28.4 °F 81% 29.96 in 1.0 mi West 11.5 mph 23.0 mph 0.02 in Snow Light Snow
2:30 AM 33.8 °F 25.8 °F 28.4 °F 81% 29.97 in 2.0 mi West 10.4 mph 18.4 mph 0.02 in Snow Light Snow
2:39 AM 32.0 °F 25.6 °F 28.4 °F 87% 29.97 in 1.5 mi West 6.9 mph 19.6 mph 0.02 in Snow Light Snow
2:50 AM 32.0 °F 24.2 °F 28.4 °F 87% 29.98 in 3.0 mi West 9.2 mph 21.9 mph 0.02 in Snow Light Snow
2:53 AM 32.0 °F 23.0 °F 28.0 °F 85% 30.00 in 6.0 mi West 11.5 mph 21.9 mph 0.02 in Snow Light Snow
3:02 AM 32.0 °F 24.8 °F 28.4 °F 87% 29.98 in 8.0 mi West 8.1 mph 16.1 mph N/A   Overcast
3:14 AM 33.8 °F 26.4 °F 28.4 °F 81% 29.99 in 9.0 mi West 9.2 mph 20.7 mph N/A   Overcast
3:53 AM 32.0 °F 24.2 °F 27.0 °F 82% 30.02 in 7.0 mi West 9.2 mph - 0.00 in   Overcast
4:28 AM 32.0 °F 23.0 °F 23.0 °F 69% 30.02 in 10.0 mi WNW 11.5 mph 18.4 mph N/A   Overcast
4:53 AM 32.0 °F 26.4 °F 23.0 °F 69% 30.05 in 10.0 mi Variable 5.8 mph - N/A   Overcast
5:13 AM 32.0 °F 25.6 °F 21.2 °F 64% 30.04 in 10.0 mi WNW 6.9 mph - N/A   Overcast
5:42 AM 30.2 °F 21.9 °F 19.4 °F 64% 30.04 in 10.0 mi NW 9.2 mph 17.3 mph N/A   Overcast
5:53 AM 30.9 °F 26.2 °F 21.0 °F 67% 30.06 in 10.0 mi WNW 4.6 mph - N/A   Overcast
6:53 AM 30.0 °F 22.4 °F 19.0 °F 64% 30.09 in 10.0 mi WNW 8.1 mph 20.7 mph N/A   Overcast
7:53 AM 30.0 °F 21.7 °F 18.0 °F 61% 30.12 in 10.0 mi WNW 9.2 mph 18.4 mph N/A   Overcast
8:53 AM 28.9 °F 21.9 °F 16.0 °F 58% 30.17 in 10.0 mi WNW 6.9 mph - N/A   Overcast
9:53 AM 28.0 °F 20.8 °F 18.0 °F 66% 30.19 in 10.0 mi NW 6.9 mph - N/A   Overcast
1:53 PM 30.0 °F 25.2 °F 12.9 °F 49% 30.18 in 10.0 mi NNW 4.6 mph - N/A   Overcast
2:53 PM 30.0 °F 26.5 °F 12.0 °F 47% 30.16 in 10.0 mi Variable 3.5 mph - N/A   Overcast
3:53 PM 30.0 °F 26.5 °F 12.9 °F 49% 30.17 in 10.0 mi NW 3.5 mph - N/A   Overcast
4:53 PM 28.9 °F - 14.0 °F 54% 30.18 in 10.0 mi Calm Calm - N/A   Mostly Cloudy
5:53 PM 28.9 °F - 12.0 °F 49% 30.19 in 10.0 mi Calm Calm - N/A   Mostly Cloudy
6:53 PM 27.0 °F - 12.9 °F 56% 30.19 in 10.0 mi Calm Calm - N/A   Partly Cloudy
7:53 PM 25.0 °F - 14.0 °F 63% 30.17 in 10.0 mi Calm Calm - N/A   Partly Cloudy
8:53 PM 24.1 °F - 15.1 °F 69% 30.16 in 10.0 mi Calm Calm - N/A   Mostly Cloudy
9:53 PM 23.0 °F - 16.0 °F 74% 30.16 in 10.0 mi Calm Calm - N/A   Clear
10:53 PM 21.9 °F - 17.1 °F 82% 30.17 in 10.0 mi Calm Calm - N/A   Partly Cloudy
11:53 PM 21.0 °F - 17.1 °F 85% 30.17 in 10.0 mi Calm Calm - N/A   Mostly Cloudy